Location: R�o Tuerlos
(40.6704°N, 4.4622°W)
Time: 01:18:23
(UTC+00:00)

USA 215 - Pass Details

Date: 07 June 2020
Orbit: 1098 x 1110 km, 123.0° (Epoch: 10 July)

Event Time Altitude Azimuth Distance (km) Brightness Sun altitude
Exits shadow 02:15:21 32° 183° (S) 1,810 3.9 -20.8°
Maximum altitude 02:17:51 44° 231° (SW) 1,482 3.5 -20.6°
Drops below altitude 10° 02:24:04 10° 302° (WNW) 2,966 5.5 -20.0°
Sets 02:26:42 0° 309° (NW) 3,925 6.2 -19.7°
